| time (UTC) | temp C | wind direction | speed KPH | gust KPH | rain 1hr cm | rain 24hr cm | rain mn cm | humidity % | barometer mb |
| 20260906111021 | 20 | 111 | 0.0 | 0.0 | 0.00 | 0.00 | 0.00 | 65 | 1011.9 |
| 20260906110521 | 20 | 111 | 0.0 | 0.0 | 0.00 | 0.00 | 0.00 | 67 | 1011.9 |
| 20260906110021 | 20 | 111 | 0.0 | 0.0 | 0.00 | 0.00 | 0.00 | 67 | 1011.8 |
| 20260906105521 | 20 | 111 | 0.0 | 1.6 | 0.00 | 0.00 | 0.00 | 69 | 1011.7 |
| 20260906105020 | 20 | 111 | 0.0 | 3.2 | 0.00 | 0.00 | 0.00 | 68 | 1011.7 |
| 20260906104535 | 20 | 111 | 0.0 | 3.2 | 0.00 | 0.00 | 0.00 | 69 | 1011.7 |
| 20260906104020 | 20 | 107 | 0.0 | 3.2 | 0.00 | 0.00 | 0.00 | 69 | 1011.6 |
| 20260906103521 | 20 | 107 | 0.0 | 1.6 | 0.00 | 0.00 | 0.00 | 68 | 1011.6 |
| 20260906103039 | 20 | 103 | 0.0 | 0.0 | 0.00 | 0.00 | 0.00 | 66 | 1011.4 |
| 20260906102520 | 20 | 103 | 0.0 | 0.0 | 0.00 | 0.00 | 0.00 | 65 | 1011.5 |
| 20260906102021 | 20 | 103 | 0.0 | 0.0 | 0.00 | 0.00 | 0.00 | 65 | 1011.5 |
| 20260906101520 | 20 | 103 | 0.0 | 0.0 | 0.00 | 0.00 | 0.00 | 64 | 1011.7 |
| 20260906101023 | 20 | 103 | 0.0 | 0.0 | 0.00 | 0.00 | 0.00 | 61 | 1011.6 |
| 20260906100519 | 20 | 103 | 0.0 | 0.0 | 0.00 | 0.00 | 0.00 | 59 | 1011.7 |
| 20260906100025 | 20 | 103 | 0.0 | 0.0 | 0.00 | 0.00 | 0.00 | 62 | 1011.7 |
| 20260906095517 | 20 | 103 | 0.0 | 0.0 | 0.00 | 0.00 | 0.00 | 66 | 1011.7 |
| 20260906095018 | 20 | 103 | 0.0 | 0.0 | 0.00 | 0.00 | 0.00 | 71 | 1011.7 |
| 20260906094515 | 20 | 103 | 0.0 | 0.0 | 0.00 | 0.00 | 0.00 | 74 | 1011.7 |
| 20260906094015 | 20 | 103 | 0.0 | 0.0 | 0.00 | 0.00 | 0.00 | 75 | 1011.8 |
| 20260906093513 | 20 | 103 | 0.0 | 0.0 | 0.00 | 0.00 | 0.00 | 77 | 1011.8 |
| 20260906093017 | 20 | 103 | 0.0 | 0.0 | 0.00 | 0.00 | 0.00 | 80 | 1011.7 |
| 20260906092512 | 20 | 103 | 0.0 | 0.0 | 0.00 | 0.00 | 0.00 | 81 | 1011.9 |
| 20260906092012 | 20 | 103 | 0.0 | 0.0 | 0.00 | 0.00 | 0.00 | 81 | 1011.7 |
| 20260906091520 | 20 | 103 | 0.0 | 0.0 | 0.00 | 0.00 | 0.00 | 81 | 1011.7 |
| 20260906091010 | 20 | 103 | 0.0 | 0.0 | 0.00 | 0.00 | 0.00 | 76 | 1011.3 |
| 20260906090509 | 20 | 103 | 0.0 | 0.0 | 0.00 | 0.00 | 0.00 | 76 | 1011.2 |
| 20260906090013 | 20 | 103 | 0.0 | 0.0 | 0.00 | 0.00 | 0.00 | 76 | 1011.2 |
| 20260906085513 | 20 | 103 | 0.0 | 0.0 | 0.00 | 0.00 | 0.00 | 76 | 1011.1 |
| 20260906085009 | 20 | 103 | 0.0 | 0.0 | 0.00 | 0.00 | 0.00 | 76 | 1011.0 |
| 20260906084508 | 20 | 103 | 0.0 | 0.0 | 0.00 | 0.00 | 0.00 | 78 | 1011.1 |
| 20260906084008 | 20 | 103 | 0.0 | 0.0 | 0.00 | 0.00 | 0.00 | 80 | 1011.1 |
| 20260906083507 | 20 | 103 | 0.0 | 0.0 | 0.00 | 0.00 | 0.00 | 82 | 1011.1 |
| 20260906083007 | 20 | 89 | 0.0 | 0.0 | 0.00 | 0.00 | 0.00 | 83 | 1011.0 |
| 20260906082506 | 20 | 89 | 0.0 | 0.0 | 0.00 | 0.00 | 0.00 | 84 | 1011.0 |
| 20260906082007 | 20 | 89 | 0.0 | 0.0 | 0.00 | 0.00 | 0.00 | 84 | 1011.0 |
| 20260906081506 | 20 | 89 | 0.0 | 0.0 | 0.00 | 0.00 | 0.00 | 83 | 1011.0 |
| 20260906081005 | 20 | 89 | 0.0 | 0.0 | 0.00 | 0.00 | 0.00 | 84 | 1011.1 |
| 20260906080509 | 21 | 89 | 0.0 | 0.0 | 0.00 | 0.00 | 0.00 | 85 | 1011.2 |
| 20260906080006 | 21 | 89 | 0.0 | 0.0 | 0.00 | 0.00 | 0.00 | 85 | 1011.3 |
| 20260906075504 | 21 | 89 | 0.0 | 0.0 | 0.00 | 0.00 | 0.00 | 85 | 1011.3 |
| 20260906075006 | 21 | 89 | 0.0 | 0.0 | 0.00 | 0.00 | 0.00 | 86 | 1011.1 |
| 20260906074505 | 21 | 89 | 0.0 | 0.0 | 0.00 | 0.00 | 0.00 | 86 | 1011.1 |
| 20260906074004 | 21 | 89 | 0.0 | 0.0 | 0.00 | 0.00 | 0.00 | 86 | 1011.0 |
| 20260906073504 | 21 | 89 | 0.0 | 0.0 | 0.00 | 0.00 | 0.00 | 86 | 1011.0 |
| 20260906073004 | 21 | 89 | 0.0 | 0.0 | 0.00 | 0.00 | 0.00 | 85 | 1011.0 |
| 20260906072504 | 21 | 89 | 0.0 | 0.0 | 0.00 | 0.00 | 0.00 | 84 | 1011.0 |
| 20260906072004 | 21 | 89 | 0.0 | 0.0 | 0.00 | 0.00 | 0.00 | 83 | 1011.0 |
| 20260906071503 | 21 | 89 | 0.0 | 0.0 | 0.00 | 0.00 | 0.00 | 81 | 1011.0 |
| 20260906071006 | 21 | 89 | 0.0 | 0.0 | 0.00 | 0.00 | 0.00 | 80 | 1011.0 |
| 20260906070502 | 20 | 89 | 0.0 | 0.0 | 0.00 | 0.00 | 0.00 | 81 | 1011.0 |
| 20260906070004 | 21 | 89 | 0.0 | 0.0 | 0.00 | 0.00 | 0.00 | 82 | 1011.0 |
| 20260906065503 | 21 | 89 | 0.0 | 0.0 | 0.00 | 0.00 | 0.00 | 81 | 1011.2 |
| 20260906065100 | 21 | 89 | 0.0 | 0.0 | 0.00 | 0.00 | 0.00 | 83 | 1011.3 |
| 20260906064559 | 21 | 89 | 0.0 | 0.0 | 0.00 | 0.00 | 0.00 | 85 | 1011.4 |
| 20260906064059 | 21 | 89 | 0.0 | 0.0 | 0.00 | 0.00 | 0.00 | 86 | 1011.4 |
| 20260906063600 | 21 | 89 | 0.0 | 0.0 | 0.00 | 0.00 | 0.00 | 86 | 1011.4 |
| 20260906063059 | 21 | 89 | 0.0 | 0.0 | 0.00 | 0.00 | 0.00 | 85 | 1011.5 |
| 20260906062558 | 21 | 89 | 0.0 | 0.0 | 0.00 | 0.00 | 0.00 | 85 | 1011.3 |
| 20260906062058 | 21 | 89 | 0.0 | 0.0 | 0.00 | 0.00 | 0.00 | 84 | 1011.4 |
| 20260906061558 | 21 | 89 | 0.0 | 0.0 | 0.00 | 0.00 | 0.00 | 83 | 1011.4 |
| 20260906061057 | 21 | 89 | 0.0 | 0.0 | 0.00 | 0.00 | 0.00 | 83 | 1011.4 |
| 20260906060556 | 21 | 89 | 0.0 | 0.0 | 0.00 | 0.00 | 0.00 | 84 | 1011.4 |
| 20260906060057 | 21 | 89 | 0.0 | 0.0 | 0.00 | 0.00 | 0.00 | 85 | 1011.5 |
| 20260906055556 | 21 | 89 | 0.0 | 0.0 | 0.00 | 0.00 | 0.00 | 85 | 1011.6 |
| 20260906055056 | 21 | 89 | 0.0 | 0.0 | 0.00 | 0.00 | 0.00 | 86 | 1011.5 |
| 20260906054610 | 21 | 80 | 0.0 | 0.0 | 0.00 | 0.00 | 0.00 | 86 | 1011.6 |
| 20260906054057 | 21 | 80 | 0.0 | 0.0 | 0.00 | 0.00 | 0.00 | 86 | 1011.7 |
| 20260906053554 | 21 | 80 | 0.0 | 0.0 | 0.00 | 0.00 | 0.00 | 86 | 1011.8 |
| 20260906053054 | 21 | 80 | 0.0 | 0.0 | 0.00 | 0.00 | 0.00 | 86 | 1011.8 |
| 20260906052553 | 21 | 80 | 0.0 | 0.0 | 0.00 | 0.00 | 0.00 | 86 | 1012.0 |
| 20260906052053 | 21 | 80 | 0.0 | 0.0 | 0.00 | 0.00 | 0.00 | 86 | 1012.1 |
| 20260906051552 | 21 | 80 | 0.0 | 0.0 | 0.00 | 0.00 | 0.00 | 86 | 1012.2 |
| 20260906051052 | 21 | 80 | 0.0 | 0.0 | 0.00 | 0.00 | 0.00 | 86 | 1012.2 |
| 20260906050551 | 21 | 80 | 0.0 | 0.0 | 0.00 | 0.00 | 0.00 | 85 | 1012.3 |
| 20260906050059 | 21 | 80 | 0.0 | 0.0 | 0.00 | 0.00 | 0.00 | 85 | 1012.3 |
| 20260906045548 | 21 | 80 | 0.0 | 0.0 | 0.00 | 0.00 | 0.00 | 85 | 1012.2 |
| 20260906045048 | 22 | 80 | 0.0 | 0.0 | 0.00 | 0.00 | 0.00 | 83 | 1012.2 |
| 20260906044546 | 22 | 96 | 0.0 | 0.0 | 0.00 | 0.00 | 0.00 | 83 | 1012.1 |
| 20260906044047 | 22 | 96 | 0.0 | 0.0 | 0.00 | 0.00 | 0.00 | 82 | 1011.9 |
| 20260906043545 | 22 | 96 | 0.0 | 0.0 | 0.00 | 0.00 | 0.00 | 82 | 1012.0 |
| 20260906043046 | 22 | 96 | 0.0 | 0.0 | 0.00 | 0.00 | 0.00 | 82 | 1012.0 |
| 20260906042545 | 22 | 96 | 0.0 | 0.0 | 0.00 | 0.00 | 0.00 | 82 | 1012.0 |
| 20260906042045 | 22 | 96 | 0.0 | 0.0 | 0.00 | 0.00 | 0.00 | 81 | 1011.9 |
| 20260906041544 | 22 | 96 | 0.0 | 0.0 | 0.00 | 0.00 | 0.00 | 82 | 1011.9 |
| 20260906041043 | 22 | 96 | 0.0 | 0.0 | 0.00 | 0.00 | 0.00 | 82 | 1011.7 |
| 20260906040542 | 22 | 96 | 0.0 | 0.0 | 0.00 | 0.00 | 0.00 | 82 | 1011.7 |
| 20260906040047 | 22 | 96 | 0.0 | 0.0 | 0.00 | 0.00 | 0.00 | 82 | 1011.7 |
| 20260906035542 | 22 | 96 | 0.0 | 0.0 | 0.00 | 0.00 | 0.00 | 82 | 1011.8 |
| 20260906035041 | 22 | 96 | 0.0 | 0.0 | 0.00 | 0.00 | 0.00 | 82 | 1011.8 |
| 20260906034548 | 22 | 96 | 0.0 | 0.0 | 0.00 | 0.00 | 0.00 | 83 | 1011.9 |
| 20260906034040 | 22 | 96 | 0.0 | 0.0 | 0.00 | 0.00 | 0.00 | 83 | 1012.1 |
| 20260906033540 | 22 | 96 | 0.0 | 0.0 | 0.00 | 0.00 | 0.00 | 83 | 1012.1 |
| 20260906033040 | 22 | 96 | 0.0 | 0.0 | 0.00 | 0.00 | 0.00 | 83 | 1012.2 |
| 20260906032542 | 22 | 96 | 0.0 | 0.0 | 0.00 | 0.00 | 0.00 | 83 | 1012.3 |
| 20260906032041 | 22 | 96 | 0.0 | 0.0 | 0.00 | 0.00 | 0.00 | 83 | 1012.3 |
| 20260906031603 | 22 | 96 | 0.0 | 0.0 | 0.00 | 0.00 | 0.00 | 83 | 1012.2 |
| 20260906031044 | 22 | 96 | 0.0 | 0.0 | 0.00 | 0.00 | 0.00 | 83 | 1012.2 |
| 20260906030541 | 22 | 96 | 0.0 | 0.0 | 0.00 | 0.00 | 0.00 | 81 | 1012.1 |
| 20260906030041 | 22 | 96 | 0.0 | 0.0 | 0.00 | 0.00 | 0.00 | 80 | 1012.1 |
| 20260906025541 | 22 | 96 | 0.0 | 0.0 | 0.00 | 0.00 | 0.00 | 80 | 1012.1 |
| 20260906025039 | 22 | 96 | 0.0 | 0.0 | 0.00 | 0.00 | 0.00 | 79 | 1012.0 |
| 20260906024555 | 23 | 96 | 0.0 | 0.0 | 0.00 | 0.00 | 0.00 | 79 | 1012.0 |
| 20260906024042 | 23 | 96 | 0.0 | 0.0 | 0.00 | 0.00 | 0.00 | 80 | 1012.0 |
| 20260906023539 | 23 | 96 | 0.0 | 0.0 | 0.00 | 0.00 | 0.00 | 77 | 1012.0 |
| 20260906023044 | 23 | 96 | 0.0 | 0.0 | 0.00 | 0.00 | 0.00 | 76 | 1012.0 |
| 20260906022538 | 23 | 96 | 0.0 | 0.0 | 0.00 | 0.00 | 0.00 | 77 | 1012.0 |
| 20260906022040 | 23 | 96 | 0.0 | 0.0 | 0.00 | 0.00 | 0.00 | 77 | 1012.0 |
| 20260906021539 | 23 | 96 | 0.0 | 0.0 | 0.00 | 0.00 | 0.00 | 76 | 1012.0 |
| 20260906021038 | 23 | 96 | 0.0 | 0.0 | 0.00 | 0.00 | 0.00 | 78 | 1011.8 |
| 20260906020539 | 23 | 96 | 0.0 | 0.0 | 0.00 | 0.00 | 0.00 | 79 | 1011.8 |
| 20260906020039 | 23 | 96 | 0.0 | 0.0 | 0.00 | 0.00 | 0.00 | 80 | 1011.8 |
| 20260906015538 | 22 | 101 | 0.0 | 0.0 | 0.00 | 0.00 | 0.00 | 82 | 1011.8 |
| 20260906015038 | 22 | 101 | 0.0 | 0.0 | 0.00 | 0.00 | 0.00 | 82 | 1011.8 |
| 20260906014537 | 22 | 101 | 0.0 | 0.0 | 0.00 | 0.00 | 0.00 | 82 | 1011.6 |
| 20260906014040 | 23 | 101 | 0.0 | 0.0 | 0.00 | 0.00 | 0.00 | 82 | 1011.5 |
| 20260906013539 | 23 | 101 | 0.0 | 0.0 | 0.00 | 0.00 | 0.00 | 81 | 1011.4 |
| 20260906013037 | 23 | 101 | 0.0 | 0.0 | 0.00 | 0.00 | 0.00 | 80 | 1011.4 |
| 20260906012537 | 23 | 101 | 0.0 | 0.0 | 0.00 | 0.00 | 0.00 | 80 | 1011.3 |
| 20260906012038 | 23 | 101 | 0.0 | 0.0 | 0.00 | 0.00 | 0.00 | 81 | 1011.3 |
| 20260906011537 | 23 | 101 | 0.0 | 0.0 | 0.00 | 0.00 | 0.00 | 81 | 1011.3 |
| 20260906011039 | 23 | 101 | 0.0 | 0.0 | 0.00 | 0.00 | 0.00 | 79 | 1011.2 |
| 20260906010537 | 23 | 101 | 0.0 | 0.0 | 0.00 | 0.00 | 0.00 | 75 | 1011.1 |
| 20260906010047 | 24 | 101 | 0.0 | 0.0 | 0.00 | 0.00 | 0.00 | 76 | 1010.9 |
| 20260906005537 | 24 | 101 | 0.0 | 0.0 | 0.00 | 0.00 | 0.00 | 79 | 1010.9 |
| 20260906005035 | 24 | 101 | 0.0 | 0.0 | 0.00 | 0.00 | 0.00 | 79 | 1010.9 |
| 20260906004535 | 24 | 101 | 0.0 | 0.0 | 0.00 | 0.00 | 0.00 | 79 | 1010.9 |
| 20260906004035 | 24 | 101 | 0.0 | 0.0 | 0.00 | 0.00 | 0.00 | 78 | 1010.8 |
| 20260906003535 | 24 | 101 | 0.0 | 0.0 | 0.00 | 0.00 | 0.00 | 78 | 1010.7 |
| 20260906003036 | 24 | 101 | 0.0 | 0.0 | 0.00 | 0.00 | 0.00 | 78 | 1010.8 |
| 20260906002535 | 24 | 101 | 0.0 | 0.0 | 0.00 | 0.00 | 0.00 | 78 | 1010.8 |
| 20260906002037 | 24 | 101 | 0.0 | 0.0 | 0.00 | 0.00 | 0.00 | 77 | 1010.8 |
| 20260906001536 | 24 | 101 | 0.0 | 0.0 | 0.00 | 0.00 | 0.00 | 77 | 1010.9 |
| 20260906001035 | 24 | 101 | 0.0 | 0.0 | 0.00 | 0.00 | 0.00 | 76 | 1011.0 |
| 20260906000535 | 24 | 101 | 0.0 | 0.0 | 0.00 | 0.00 | 0.00 | 76 | 1011.0 |
| 20260906000037 | 25 | 101 | 0.0 | 0.0 | 0.00 | 0.00 | 0.00 | 77 | 1011.0 |
| 20260905235534 | 25 | 101 | 0.0 | 0.0 | 0.00 | 0.00 | 0.00 | 77 | 1011.1 |
| 20260905235034 | 25 | 101 | 0.0 | 0.0 | 0.00 | 0.00 | 0.00 | 77 | 1011.1 |
| 20260905234536 | 25 | 101 | 0.0 | 0.0 | 0.00 | 0.00 | 0.00 | 75 | 1010.9 |
| 20260905234035 | 25 | 101 | 0.0 | 0.0 | 0.00 | 0.00 | 0.00 | 75 | 1010.9 |
| 20260905233537 | 25 | 101 | 0.0 | 0.0 | 0.00 | 0.00 | 0.00 | 73 | 1011.0 |
| 20260905233034 | 25 | 101 | 0.0 | 0.0 | 0.00 | 0.00 | 0.00 | 73 | 1010.8 |
| 20260905232534 | 25 | 101 | 0.0 | 0.0 | 0.00 | 0.00 | 0.00 | 74 | 1010.8 |
| 20260905232036 | 25 | 101 | 0.0 | 0.0 | 0.00 | 0.00 | 0.00 | 75 | 1010.8 |
| 20260905231532 | 25 | 101 | 0.0 | 0.0 | 0.00 | 0.00 | 0.00 | 75 | 1010.8 |
| 20260905231033 | 26 | 101 | 0.0 | 0.0 | 0.00 | 0.00 | 0.00 | 76 | 1011.0 |
| 20260905230535 | 26 | 101 | 0.0 | 0.0 | 0.00 | 0.00 | 0.00 | 75 | 1010.8 |
| 20260905230035 | 26 | 101 | 0.0 | 0.0 | 0.00 | 0.00 | 0.00 | 73 | 1010.7 |
| 20260905225535 | 26 | 101 | 0.0 | 0.0 | 0.00 | 0.00 | 0.00 | 72 | 1010.8 |
| 20260905225034 | 26 | 101 | 0.0 | 0.0 | 0.00 | 0.00 | 0.00 | 71 | 1010.6 |
| 20260905224531 | 26 | 101 | 0.0 | 0.0 | 0.00 | 0.00 | 0.00 | 70 | 1010.7 |
| 20260905224030 | 26 | 101 | 0.0 | 0.0 | 0.00 | 0.00 | 0.00 | 71 | 1010.8 |
| 20260905223530 | 26 | 101 | 0.0 | 0.0 | 0.00 | 0.00 | 0.00 | 71 | 1010.9 |
| 20260905223031 | 26 | 101 | 0.0 | 0.0 | 0.00 | 0.00 | 0.00 | 70 | 1011.1 |
| 20260905222530 | 26 | 101 | 0.0 | 0.0 | 0.00 | 0.00 | 0.00 | 70 | 1011.1 |
| 20260905222030 | 26 | 101 | 0.0 | 1.6 | 0.00 | 0.00 | 0.00 | 68 | 1011.2 |
| 20260905221530 | 26 | 101 | 0.0 | 1.6 | 0.00 | 0.00 | 0.00 | 69 | 1011.0 |
| 20260905221030 | 26 | 94 | 0.0 | 3.2 | 0.00 | 0.00 | 0.00 | 68 | 1010.9 |
| 20260905220529 | 26 | 94 | 0.0 | 4.8 | 0.00 | 0.00 | 0.00 | 68 | 1011.0 |
| 20260905220031 | 27 | 105 | 0.0 | 1.6 | 0.00 | 0.00 | 0.00 | 71 | 1011.0 |
| 20260905215529 | 26 | 111 | 0.0 | 1.6 | 0.00 | 0.48 | 0.00 | 71 | 1010.8 |
| 20260905215030 | 26 | 110 | 0.0 | 3.2 | 0.00 | 0.48 | 0.00 | 72 | 1010.8 |
| 20260905214528 | 26 | 89 | 0.0 | 3.2 | 0.00 | 0.48 | 0.00 | 73 | 1010.9 |
| 20260905214029 | 26 | 87 | 0.0 | 0.0 | 0.00 | 0.48 | 0.00 | 73 | 1010.9 |
| 20260905213527 | 26 | 80 | 0.0 | 0.0 | 0.00 | 0.48 | 0.00 | 75 | 1011.0 |
| 20260905213027 | 27 | 80 | 0.0 | 0.0 | 0.00 | 0.48 | 0.00 | 75 | 1011.0 |
| 20260905212527 | 27 | 80 | 0.0 | 0.0 | 0.00 | 0.48 | 0.00 | 75 | 1011.2 |
| 20260905212026 | 27 | 80 | 0.0 | 0.0 | 0.00 | 0.48 | 0.00 | 75 | 1011.2 |
| 20260905211552 | 27 | 80 | 0.0 | 0.0 | 0.00 | 0.48 | 0.00 | 72 | 1011.2 |
| 20260905211027 | 27 | 80 | 0.0 | 0.0 | 0.00 | 0.48 | 0.00 | 70 | 1011.3 |
| 20260905210527 | 27 | 80 | 0.0 | 1.6 | 0.00 | 0.48 | 0.00 | 69 | 1011.4 |
| 20260905210026 | 27 | 80 | 0.0 | 1.6 | 0.00 | 0.48 | 0.00 | 70 | 1011.5 |
| 20260905205526 | 27 | 80 | 0.0 | 1.6 | 0.00 | 0.48 | 0.00 | 68 | 1011.4 |
| 20260905205025 | 28 | 104 | 0.0 | 0.0 | 0.00 | 0.48 | 0.00 | 65 | 1011.2 |
| 20260905204525 | 28 | 110 | 0.0 | 0.0 | 0.00 | 0.48 | 0.00 | 64 | 1011.1 |
| 20260905204025 | 28 | 71 | 0.0 | 0.0 | 0.00 | 0.48 | 0.00 | 65 | 1011.1 |
| 20260905203525 | 28 | 71 | 0.0 | 0.0 | 0.00 | 0.48 | 0.00 | 64 | 1011.0 |
| 20260905203025 | 28 | 71 | 0.0 | 3.2 | 0.00 | 0.48 | 0.00 | 62 | 1010.9 |
| 20260905202526 | 28 | 71 | 0.0 | 3.2 | 0.00 | 0.48 | 0.00 | 61 | 1011.1 |
| 20260905202023 | 29 | 52 | 0.0 | 0.0 | 0.00 | 0.48 | 0.00 | 62 | 1011.4 |
| 20260905201531 | 29 | 52 | 0.0 | 0.0 | 0.00 | 0.48 | 0.00 | 62 | 1011.4 |
| 20260905201022 | 29 | 52 | 0.0 | 0.0 | 0.00 | 0.48 | 0.00 | 60 | 1011.5 |
| 20260905200522 | 29 | 53 | 0.0 | 0.0 | 0.00 | 0.48 | 0.00 | 63 | 1011.6 |
| 20260905200022 | 29 | 53 | 0.0 | 0.0 | 0.00 | 0.48 | 0.00 | 62 | 1011.7 |
| 20260905195522 | 29 | 53 | 0.0 | 3.2 | 0.00 | 0.48 | 0.00 | 66 | 1011.7 |
| 20260905195022 | 29 | 53 | 0.0 | 4.8 | 0.00 | 0.48 | 0.00 | 66 | 1011.6 |
| 20260905194522 | 29 | 55 | 0.0 | 4.8 | 0.00 | 0.48 | 0.00 | 67 | 1011.4 |
| 20260905194021 | 29 | 154 | 0.0 | 3.2 | 0.00 | 0.48 | 0.00 | 67 | 1011.4 |
| 20260905193521 | 29 | 144 | 0.0 | 3.2 | 0.00 | 0.48 | 0.00 | 66 | 1011.4 |
| 20260905193021 | 28 | 75 | 0.0 | 3.2 | 0.00 | 0.48 | 0.00 | 67 | 1011.3 |
| 20260905192520 | 28 | 75 | 0.0 | 3.2 | 0.00 | 0.48 | 0.00 | 66 | 1011.4 |
| 20260905192020 | 28 | 49 | 0.0 | 3.2 | 0.00 | 0.48 | 0.00 | 65 | 1011.5 |
| 20260905191519 | 28 | 82 | 0.0 | 3.2 | 0.00 | 0.48 | 0.00 | 66 | 1011.9 |
| 20260905191021 | 28 | 60 | 0.0 | 4.8 | 0.00 | 0.48 | 0.00 | 66 | 1011.9 |
| 20260905190519 | 29 | 117 | 0.0 | 4.8 | 0.00 | 0.48 | 0.00 | 65 | 1011.9 |
| 20260905190019 | 29 | 48 | 0.0 | 4.8 | 0.00 | 0.48 | 0.00 | 65 | 1012.2 |
| 20260905185517 | 29 | 65 | 1.6 | 3.2 | 0.00 | 0.48 | 0.00 | 66 | 1012.1 |
| 20260905185021 | 29 | 57 | 0.0 | 3.2 | 0.00 | 0.48 | 0.00 | 64 | 1011.8 |
| 20260905184518 | 30 | 57 | 0.0 | 3.2 | 0.00 | 0.48 | 0.00 | 65 | 1011.7 |
| 20260905184017 | 30 | 70 | 0.0 | 3.2 | 0.00 | 0.48 | 0.00 | 65 | 1011.7 |
| 20260905183517 | 30 | 103 | 0.0 | 0.0 | 0.00 | 0.48 | 0.00 | 67 | 1011.8 |
| 20260905183027 | 30 | 178 | 0.0 | 0.0 | 0.00 | 0.48 | 0.00 | 65 | 1011.9 |
| 20260905182514 | 30 | 164 | 0.0 | 3.2 | 0.00 | 0.48 | 0.00 | 66 | 1012.1 |
| 20260905182014 | 30 | 164 | 0.0 | 3.2 | 0.00 | 0.48 | 0.00 | 65 | 1012.1 |
| 20260905181513 | 30 | 121 | 0.0 | 1.6 | 0.00 | 0.48 | 0.00 | 66 | 1012.1 |
| 20260905181011 | 30 | 159 | 0.0 | 1.6 | 0.00 | 0.48 | 0.00 | 65 | 1012.2 |
| 20260905180511 | 30 | 85 | 0.0 | 0.0 | 0.00 | 0.48 | 0.00 | 64 | 1012.3 |
| 20260905180010 | 30 | 85 | 0.0 | 0.0 | 0.00 | 0.48 | 0.00 | 66 | 1012.3 |
| 20260905175510 | 30 | 85 | 0.0 | 0.0 | 0.00 | 0.48 | 0.00 | 65 | 1012.3 |
| 20260905175009 | 30 | 85 | 0.0 | 1.6 | 0.00 | 0.48 | 0.00 | 68 | 1012.3 |
| 20260905174509 | 30 | 85 | 0.0 | 1.6 | 0.00 | 0.48 | 0.00 | 67 | 1012.4 |
| 20260905174007 | 29 | 132 | 0.0 | 3.2 | 0.00 | 0.48 | 0.00 | 67 | 1012.5 |
| 20260905173507 | 29 | 132 | 0.0 | 3.2 | 0.00 | 0.48 | 0.00 | 68 | 1012.6 |
| 20260905173009 | 29 | 102 | 0.0 | 1.6 | 0.00 | 0.48 | 0.00 | 69 | 1012.7 |
| 20260905172506 | 29 | 102 | 0.0 | 1.6 | 0.00 | 0.48 | 0.00 | 65 | 1012.7 |
| 20260905172006 | 29 | 102 | 0.0 | 3.2 | 0.00 | 0.48 | 0.00 | 66 | 1012.7 |
| 20260905171505 | 29 | 167 | 0.0 | 3.2 | 0.00 | 0.48 | 0.00 | 67 | 1012.8 |
| 20260905171003 | 29 | 75 | 0.0 | 3.2 | 0.00 | 0.48 | 0.00 | 67 | 1012.8 |
| 20260905170503 | 29 | 86 | 0.0 | 0.0 | 0.00 | 0.48 | 0.00 | 67 | 1012.8 |
| 20260905170004 | 29 | 86 | 0.0 | 0.0 | 0.00 | 0.48 | 0.00 | 65 | 1012.9 |
| 20260905165504 | 29 | 86 | 0.0 | 0.0 | 0.00 | 0.48 | 0.00 | 70 | 1012.9 |
| 20260905165001 | 28 | 86 | 0.0 | 0.0 | 0.00 | 0.48 | 0.00 | 70 | 1012.9 |
| 20260905164501 | 28 | 86 | 0.0 | 0.0 | 0.00 | 0.48 | 0.00 | 71 | 1013.0 |
| 20260905164003 | 28 | 86 | 0.0 | 0.0 | 0.00 | 0.48 | 0.00 | 68 | 1013.2 |
| 20260905163503 | 28 | 90 | 0.0 | 0.0 | 0.00 | 0.48 | 0.00 | 67 | 1013.2 |
| 20260905163001 | 29 | 90 | 0.0 | 0.0 | 0.00 | 0.48 | 0.00 | 68 | 1013.2 |
| 20260905162502 | 29 | 90 | 0.0 | 0.0 | 0.00 | 0.48 | 0.00 | 71 | 1013.2 |
| 20260905162101 | 29 | 90 | 0.0 | 0.0 | 0.00 | 0.48 | 0.00 | 71 | 1013.3 |
| 20260905161601 | 29 | 90 | 0.0 | 0.0 | 0.00 | 0.48 | 0.00 | 71 | 1013.4 |
| 20260905161100 | 29 | 94 | 0.0 | 0.0 | 0.00 | 0.48 | 0.00 | 71 | 1013.4 |
| 20260905161001 | 29 | 94 | 0.0 | 0.0 | 0.00 | 0.48 | 0.00 | 71 | 1013.5 |
| 20260905160600 | 29 | 94 | 0.0 | 0.0 | 0.00 | 0.48 | 0.00 | 72 | 1013.3 |
| 20260905160059 | 29 | 94 | 0.0 | 0.0 | 0.00 | 0.48 | 0.00 | 76 | 1013.4 |
| 20260905155557 | 28 | 94 | 0.0 | 0.0 | 0.00 | 0.48 | 0.00 | 75 | 1013.5 |
| 20260905155057 | 28 | 94 | 0.0 | 0.0 | 0.00 | 0.48 | 0.00 | 75 | 1013.6 |
| 20260905154559 | 28 | 74 | 0.0 | 0.0 | 0.00 | 0.48 | 0.00 | 77 | 1013.7 |
| 20260905154055 | 28 | 74 | 0.0 | 0.0 | 0.00 | 0.48 | 0.00 | 79 | 1013.7 |
| 20260905153553 | 27 | 74 | 0.0 | 0.0 | 0.00 | 0.48 | 0.00 | 78 | 1013.7 |
| 20260905153053 | 27 | 74 | 0.0 | 0.0 | 0.00 | 0.48 | 0.00 | 78 | 1013.7 |
| 20260905152552 | 27 | 63 | 0.0 | 0.0 | 0.00 | 0.48 | 0.00 | 80 | 1013.8 |
| 20260905152051 | 27 | 63 | 0.0 | 0.0 | 0.00 | 0.48 | 0.00 | 81 | 1013.8 |
| 20260905151550 | 26 | 63 | 0.0 | 0.0 | 0.00 | 0.48 | 0.00 | 81 | 1013.8 |
| 20260905151048 | 26 | 63 | 0.0 | 0.0 | 0.00 | 0.48 | 0.00 | 82 | 1013.9 |
| 20260905150547 | 26 | 63 | 0.0 | 0.0 | 0.00 | 0.48 | 0.00 | 82 | 1013.9 |
| 20260905150047 | 26 | 63 | 0.0 | 0.0 | 0.00 | 0.48 | 0.00 | 83 | 1014.0 |
| 20260905145543 | 26 | 63 | 0.0 | 1.6 | 0.00 | 0.48 | 0.00 | 82 | 1014.0 |
| 20260905145042 | 25 | 63 | 0.0 | 1.6 | 0.00 | 0.48 | 0.00 | 85 | 1014.0 |
| 20260905144542 | 25 | 64 | 0.0 | 0.0 | 0.00 | 0.48 | 0.00 | 85 | 1014.1 |
| 20260905144044 | 25 | 64 | 0.0 | 0.0 | 0.00 | 0.48 | 0.00 | 84 | 1014.0 |
| 20260905143544 | 25 | 64 | 0.0 | 3.2 | 0.00 | 0.48 | 0.00 | 85 | 1014.1 |
| 20260905143048 | 25 | 64 | 0.0 | 3.2 | 0.00 | 0.48 | 0.00 | 86 | 1014.2 |
| 20260905142544 | 25 | 65 | 0.0 | 3.2 | 0.00 | 0.48 | 0.00 | 86 | 1014.2 |
| 20260905142039 | 25 | 71 | 0.0 | 3.2 | 0.00 | 0.48 | 0.00 | 85 | 1014.2 |
| 20260905141539 | 25 | 71 | 0.0 | 3.2 | 0.00 | 0.48 | 0.00 | 85 | 1014.3 |
| 20260905141037 | 25 | 55 | 0.0 | 3.2 | 0.00 | 0.48 | 0.00 | 85 | 1014.3 |
| 20260905140539 | 25 | 91 | 0.0 | 3.2 | 0.00 | 0.48 | 0.00 | 86 | 1014.4 |
| 20260905140036 | 24 | 103 | 0.0 | 0.0 | 0.00 | 0.48 | 0.00 | 84 | 1014.5 |
| 20260905135538 | 24 | 103 | 0.0 | 0.0 | 0.00 | 0.48 | 0.00 | 84 | 1014.5 |
| 20260905135036 | 24 | 103 | 0.0 | 0.0 | 0.00 | 0.48 | 0.00 | 83 | 1014.6 |
| 20260905134541 | 24 | 82 | 0.0 | 0.0 | 0.00 | 0.48 | 0.00 | 74 | 1014.7 |
| 20260905134032 | 23 | 82 | 0.0 | 0.0 | 0.00 | 0.48 | 0.00 | 73 | 1014.7 |
| 20260905133533 | 23 | 82 | 0.0 | 0.0 | 0.00 | 0.48 | 0.00 | 65 | 1014.7 |
| 20260905133032 | 23 | 81 | 0.0 | 0.0 | 0.00 | 0.48 | 0.00 | 51 | 1014.8 |
| 20260905132530 | 22 | 81 | 0.0 | 0.0 | 0.00 | 0.48 | 0.00 | 47 | 1014.7 |
| 20260905132034 | 22 | 81 | 0.0 | 0.0 | 0.00 | 0.48 | 0.00 | 42 | 1014.7 |
| 20260905131531 | 22 | 81 | 0.0 | 0.0 | 0.00 | 0.48 | 0.00 | 42 | 1014.7 |
| 20260905131030 | 22 | 110 | 0.0 | 0.0 | 0.00 | 0.48 | 0.00 | 41 | 1014.8 |
| 20260905130530 | 22 | 126 | 0.0 | 0.0 | 0.00 | 0.48 | 0.00 | 43 | 1014.8 |
| 20260905130030 | 21 | 133 | 0.0 | 0.0 | 0.00 | 0.48 | 0.00 | 43 | 1014.8 |
| 20260905125529 | 21 | 133 | 0.0 | 0.0 | 0.00 | 0.48 | 0.00 | 43 | 1014.8 |
| 20260905125028 | 21 | 72 | 0.0 | 0.0 | 0.00 | 0.48 | 0.00 | 42 | 1014.8 |
| 20260905124536 | 21 | 72 | 0.0 | 0.0 | 0.00 | 0.48 | 0.00 | 42 | 1014.8 |
| 20260905124029 | 21 | 72 | 0.0 | 0.0 | 0.00 | 0.48 | 0.00 | 43 | 1014.6 |
| 20260905123528 | 21 | 72 | 0.0 | 0.0 | 0.00 | 0.48 | 0.00 | 44 | 1014.6 |
| 20260905123027 | 21 | 72 | 0.0 | 0.0 | 0.00 | 0.48 | 0.00 | 44 | 1014.6 |
| 20260905122529 | 21 | 72 | 0.0 | 0.0 | 0.00 | 0.48 | 0.00 | 44 | 1014.6 |
| 20260905122026 | 21 | 72 | 0.0 | 0.0 | 0.00 | 0.48 | 0.00 | 45 | 1014.6 |
| 20260905121525 | 21 | 72 | 0.0 | 0.0 | 0.00 | 0.48 | 0.00 | 44 | 1014.5 |
| 20260905121025 | 21 | 72 | 0.0 | 0.0 | 0.00 | 0.48 | 0.00 | 44 | 1014.5 |
| 20260905120523 | 21 | 72 | 0.0 | 0.0 | 0.00 | 0.48 | 0.00 | 46 | 1014.3 |
| 20260905120026 | 21 | 72 | 0.0 | 0.0 | 0.00 | 0.48 | 0.00 | 46 | 1014.3 |
| 20260905115523 | 21 | 72 | 0.0 | 0.0 | 0.00 | 0.48 | 0.00 | 45 | 1014.3 |
| 20260905115022 | 21 | 72 | 0.0 | 0.0 | 0.00 | 0.48 | 0.00 | 45 | 1014.2 |
| 20260905114521 | 21 | 72 | 0.0 | 0.0 | 0.00 | 0.48 | 0.00 | 44 | 1014.1 |
| 20260905114024 | 21 | 72 | 0.0 | 0.0 | 0.00 | 0.48 | 0.00 | 45 | 1014.1 |
| 20260905113520 | 21 | 72 | 0.0 | 0.0 | 0.00 | 0.48 | 0.00 | 47 | 1014.1 |
| 20260905113022 | 20 | 72 | 0.0 | 0.0 | 0.00 | 0.48 | 0.00 | 51 | 1014.1 |
| 20260905112520 | 20 | 72 | 0.0 | 0.0 | 0.00 | 0.48 | 0.00 | 52 | 1013.9 |
| 20260905112019 | 20 | 72 | 0.0 | 0.0 | 0.00 | 0.48 | 0.00 | 53 | 1013.8 |
| 20260905111521 | 20 | 72 | 0.0 | 0.0 | 0.00 | 0.48 | 0.00 | 53 | 1013.7 |